Track STARLINK-2465 now! 10-day predictions STARLINK-2465 is classified as:
1 48124U 21027AJ 22186.39063646 -.00001575 00000-0 -86852-4 0 9990 2 48124 53.0557 71.9352 0001782 75.7461 284.3725 15.06403646 70082